STARLINK-2404 (48093 NORAD) Tracking and Keplerian Element Data

This shows tracking and keplerian element data for the satellite.

Feedback or suggestion? Click here.




ElementValue
Catalog48093
NameSTARLINK-2404
Epoch Orbit196
Epoch Day173.91668981
Epoch Year2021
RAAN326.6302
Inclination53.0472
Eccentricity0.0001401
Argument of Perigee61.3082
Mean Anonmoly1.8165
Mean Motion15.16375182
Decay Rate-0.010638
L11 48093U 21027B 21173.91668981 -.01063800 00000-0 -58396-1 0 9990
L22 48093 53.0472 326.6302 0001401 61.3082 1.8165 15.16375182 1961

Live tracking and technical data element details for STARLINK-2404 (NORAD 48093). STARLINK-2404 can be tracked NOW for your location showing map with azimuth and elevation plus other details from your city location.

Track the satellite on the map from your city or location and see movement details for azimuth, elevation, latitude, longitude, range, height, and movement on the map or in text.







IsCatalogInMostPopularTable: catalog: 48093, numindb: 32
Update: records affected: 1



GetName: 48093 STARLINK-2404

Hit Count: updated at: Thu, 24 Jun 2021 03:24:28 GMT